,,,PA_Meas_PMT16A,,PR_Meas_QMR101_102,,RH_Meas_QMH101,,SR_Meas_QMS101,,TA_Meas_QMH101,,GenWind,,GenWind,
date,time,status,PA,status,PR,status,RH,status,SR,status,TA,status,DirAvg,status,SpdAvg,
2010-04-11, 00:00:04,VALID,1000.19,VALID,0,VALID,93.1577,VALID,0,VALID,24.9503,VALID,259,VALID,0.0289063,
2010-04-11, 00:01:04,VALID,1000.19,VALID,0,VALID,93.1577,VALID,0,VALID,24.9503,VALID,259,VALID,0,
2010-04-11, 00:02:04,VALID,1000.18,VALID,0,VALID,93.1653,VALID,0,VALID,24.9484,VALID,259,VALID,0,
2010-04-11, 00:03:04,VALID,1000.15,VALID,0,VALID,93.1577,VALID,0,VALID,24.9289,VALID,259,VALID,0,
2010-04-11, 00:04:04,VALID,1000.1,VALID,0,VALID,93.1653,VALID,0,VALID,24.9503,VALID,259,VALID,0,
2010-04-11, 00:05:04,VALID,1000.1,VALID,0,VALID,93.1577,VALID,0,VALID,24.9289,VALID,259,VALID,0,
2010-04-11, 00:06:04,VALID,1000.08,VALID,0,VALID,93.1424,VALID,0,VALID,24.9308,VALID,154,VALID,0,
2010-04-11, 00:07:04,VALID,1000.09,VALID,0,VALID,93.1577,VALID,0,VALID,24.9093,VALID,153,VALID,0,
2010-04-11, 00:08:04,VALID,1000.04,VALID,0,VALID,93.1577,VALID,0,VALID,24.9308,VALID,152,VALID,0,
2010-04-11, 00:09:04,VALID,1000.02,VALID,0,VALID,93.1577,VALID,0,VALID,24.9308,VALID,149,VALID,0.399219,
2010-04-11, 00:10:04,VALID,1000.02,VALID,0,VALID,93.1348,VALID,0,VALID,24.9093,VALID,140,VALID,0.244141,
2010-04-11, 00:11:04,VALID,1000.01,VALID,0,VALID,93.1271,VALID,0,VALID,24.9093,VALID,140,VALID,0.332812,
2010-04-11, 00:12:04,VALID,999.985,VALID,0,VALID,93.0661,VALID,0,VALID,24.9093,VALID,140,VALID,0.253906,
2010-04-11, 00:13:04,VALID,999.999,VALID,0,VALID,92.9898,VALID,0,VALID,24.8703,VALID,139,VALID,0.612109,
2010-04-11, 00:14:04,VALID,999.998,VALID,0,VALID,92.9669,VALID,0,VALID,24.8898,VALID,138,VALID,0.258984,
2010-04-11, 00:15:04,VALID,999.961,VALID,0,VALID,92.9593,VALID,0,VALID,24.9093,VALID,138,VALID,0.0410156,
2010-04-11, 00:16:04,VALID,999.932,VALID,0,VALID,92.944,VALID,0,VALID,24.9093,VALID,138,VALID,0,
2010-04-11, 00:17:04,VALID,999.955,VALID,0,VALID,92.8754,VALID,0,VALID,24.8898,VALID,138,VALID,0.663281,
2010-04-11, 00:18:04,VALID,999.913,VALID,0,VALID,92.8296,VALID,0,VALID,24.8898,VALID,149,VALID,0.560156,
2010-04-11, 00:19:04,VALID,999.871,VALID,0,VALID,92.738,VALID,0,VALID,24.9112,VALID,155,VALID,0.507422,
2010-04-11, 00:20:04,VALID,999.874,VALID,0,VALID,92.6846,VALID,0,VALID,24.9112,VALID,158,VALID,0.578906,
2010-04-11, 00:21:04,VALID,999.856,VALID,0,VALID,92.6083,VALID,0,VALID,24.8898,VALID,163,VALID,0.33125,
2010-04-11, 00:22:04,VALID,999.833,VALID,0,VALID,92.616,VALID,0,VALID,24.9289,VALID,178,VALID,0.624609,
2010-04-11, 00:23:04,VALID,999.838,VALID,0,VALID,92.5473,VALID,0,VALID,24.9093,VALID,178,VALID,0.573438,
2010-04-11, 00:24:04,VALID,999.839,VALID,0,VALID,92.4939,VALID,0,VALID,24.9503,VALID,178,VALID,0.315625,
2010-04-11, 00:25:04,VALID,999.848,VALID,0,VALID,92.4557,VALID,0,VALID,24.9289,VALID,178,VALID,0,
2010-04-11, 00:26:04,VALID,999.81,VALID,0,VALID,92.4328,VALID,0,VALID,24.9503,VALID,178,VALID,0,
2010-04-11, 00:27:04,VALID,999.772,VALID,0,VALID,92.4786,VALID,0,VALID,24.9893,VALID,178,VALID,0,
2010-04-11, 00:28:04,VALID,999.738,VALID,0,VALID,92.5931,VALID,0,VALID,25.0088,VALID,178,VALID,0,
2010-04-11, 00:29:04,VALID,999.731,VALID,0,VALID,92.6388,VALID,0,VALID,25.0088,VALID,178,VALID,0,
2010-04-11, 00:30:04,VALID,999.716,VALID,0,VALID,92.6923,VALID,0,VALID,25.0069,VALID,178,VALID,0,
2010-04-11, 00:31:04,VALID,999.723,VALID,0,VALID,92.6999,VALID,0,VALID,24.9874,VALID,178,VALID,0,
2010-04-11, 00:32:04,VALID,999.733,VALID,0,VALID,92.738,VALID,0,VALID,25.0088,VALID,178,VALID,0,
2010-04-11, 00:33:04,VALID,999.719,VALID,0,VALID,92.6846,VALID,0,VALID,24.9893,VALID,178,VALID,0,
2010-04-11, 00:34:04,VALID,999.68,VALID,0,VALID,92.5473,VALID,0,VALID,24.9503,VALID,141,VALID,0.364453,
2010-04-11, 00:35:04,VALID,999.701,VALID,0,VALID,92.5473,VALID,0,VALID,24.9308,VALID,141,VALID,0.316016,
2010-04-11, 00:36:04,VALID,999.68,VALID,0,VALID,92.532,VALID,0,VALID,24.9308,VALID,141,VALID,0,
2010-04-11, 00:37:04,VALID,999.615,VALID,0,VALID,92.5168,VALID,0,VALID,24.9093,VALID,141,VALID,0,
2010-04-11, 00:38:04,VALID,999.625,VALID,0,VALID,92.5015,VALID,0,VALID,24.8703,VALID,141,VALID,0,
2010-04-11, 00:39:04,VALID,999.624,VALID,0,VALID,92.4939,VALID,0,VALID,24.8722,VALID,141,VALID,0,
2010-04-11, 00:40:04,VALID,999.608,VALID,0,VALID,92.326,VALID,0,VALID,24.8722,VALID,141,VALID,0,
2010-04-11, 00:41:04,VALID,999.604,VALID,0,VALID,92.3489,VALID,0,VALID,24.8527,VALID,141,VALID,0,
2010-04-11, 00:42:04,VALID,999.583,VALID,0,VALID,92.326,VALID,0,VALID,24.8527,VALID,141,VALID,0.461328,
2010-04-11, 00:43:04,VALID,999.583,VALID,0,VALID,92.3337,VALID,0,VALID,24.8508,VALID,141,VALID,0.527344,
2010-04-11, 00:44:04,VALID,999.55,VALID,0,VALID,92.3794,VALID,0,VALID,24.8722,VALID,141,VALID,0.0605469,
2010-04-11, 00:45:04,VALID,999.543,VALID,0,VALID,92.4176,VALID,0,VALID,24.8703,VALID,141,VALID,0.0105469,
2010-04-11, 00:46:04,VALID,999.521,VALID,0,VALID,92.4481,VALID,0,VALID,24.8917,VALID,141,VALID,0,
2010-04-11, 00:47:04,VALID,999.519,VALID,0,VALID,92.4786,VALID,0,VALID,24.8703,VALID,141,VALID,0,
2010-04-11, 00:48:04,VALID,999.52,VALID,0,VALID,92.5168,VALID,0,VALID,24.8703,VALID,141,VALID,0,
2010-04-11, 00:49:04,VALID,999.503,VALID,0,VALID,92.5702,VALID,0,VALID,24.8898,VALID,141,VALID,0,
2010-04-11, 00:50:04,VALID,999.484,VALID,0,VALID,92.5931,VALID,0,VALID,24.9112,VALID,141,VALID,0,
2010-04-11, 00:51:04,VALID,999.469,VALID,0,VALID,92.6083,VALID,0,VALID,24.8917,VALID,140,VALID,0,
2010-04-11, 00:52:04,VALID,999.46,VALID,0,VALID,92.677,VALID,0,VALID,24.8917,VALID,138,VALID,0,
2010-04-11, 00:53:04,VALID,999.456,VALID,0,VALID,92.616,VALID,0,VALID,24.8703,VALID,127,VALID,0,
2010-04-11, 00:54:04,VALID,999.405,VALID,0,VALID,92.6236,VALID,0,VALID,24.8508,VALID,104,VALID,0,
2010-04-11, 00:55:04,VALID,999.393,VALID,0,VALID,92.616,VALID,0,VALID,24.8722,VALID,109,VALID,0,
2010-04-11, 00:56:04,VALID,999.385,VALID,0,VALID,92.6007,VALID,0,VALID,24.8722,VALID,110,VALID,0,
2010-04-11, 00:57:04,VALID,999.361,VALID,0,VALID,92.616,VALID,0,VALID,24.8703,VALID,110,VALID,0,
2010-04-11, 00:58:04,VALID,999.336,VALID,0,VALID,92.6388,VALID,0,VALID,24.8917,VALID,116,VALID,0,
2010-04-11, 00:59:04,VALID,999.322,VALID,0,VALID,92.677,VALID,0,VALID,24.8703,VALID,116,VALID,0,
2010-04-11, 01:00:04,VALID,999.308,VALID,0,VALID,92.6923,VALID,0,VALID,24.8703,VALID,116,VALID,0,
2010-04-11, 01:01:04,VALID,999.289,VALID,0,VALID,92.7457,VALID,0,VALID,24.8703,VALID,113,VALID,0,
2010-04-11, 01:02:04,VALID,999.276,VALID,0,VALID,92.7838,VALID,0,VALID,24.8898,VALID,88,VALID,1.09141,
2010-04-11, 01:03:04,VALID,999.291,VALID,0,VALID,92.7762,VALID,0,VALID,24.8917,VALID,84,VALID,1.14414,
2010-04-11, 01:04:04,VALID,999.275,VALID,0,VALID,92.8296,VALID,0,VALID,24.8898,VALID,83,VALID,1.15703,
2010-04-11, 01:05:04,VALID,999.258,VALID,0,VALID,92.7838,VALID,0,VALID,24.9112,VALID,77,VALID,1.1,
2010-04-11, 01:06:04,VALID,999.252,VALID,0,VALID,92.7762,VALID,0,VALID,24.8703,VALID,98,VALID,1.0668,
2010-04-11, 01:07:04,VALID,999.222,VALID,0,VALID,92.8067,VALID,0,VALID,24.8722,VALID,100,VALID,0.494922,
2010-04-11, 01:08:04,VALID,999.182,VALID,0,VALID,92.8143,VALID,0,VALID,24.8917,VALID,135,VALID,1.04844,
2010-04-11, 01:09:04,VALID,999.175,VALID,0,VALID,92.7609,VALID,0,VALID,24.8722,VALID,129,VALID,0.888672,
2010-04-11, 01:10:04,VALID,999.11,VALID,0,VALID,92.8601,VALID,0,VALID,24.8917,VALID,138,VALID,0.78125,
2010-04-11, 01:11:04,VALID,999.104,VALID,0,VALID,92.883,VALID,0,VALID,24.8917,VALID,156,VALID,0.991016,
2010-04-11, 01:12:04,VALID,999.061,VALID,0,VALID,92.8983,VALID,0,VALID,24.8917,VALID,168,VALID,0.648047,
2010-04-11, 01:13:04,VALID,999.074,VALID,0,VALID,92.9288,VALID,0,VALID,24.8917,VALID,165,VALID,0.858203,
2010-04-11, 01:14:04,VALID,999.028,VALID,0,VALID,92.8906,VALID,0,VALID,24.8703,VALID,155,VALID,0.418359,
2010-04-11, 01:15:04,VALID,999.046,VALID,0,VALID,92.944,VALID,0,VALID,24.8898,VALID,193,VALID,0,
2010-04-11, 01:16:04,VALID,999.019,VALID,0,VALID,92.9288,VALID,0,VALID,24.8898,VALID,193,VALID,0,
2010-04-11, 01:17:04,VALID,999.046,VALID,0,VALID,92.9364,VALID,0,VALID,24.8898,VALID,193,VALID,0,
2010-04-11, 01:18:04,VALID,999.062,VALID,0,VALID,92.9593,VALID,0,VALID,24.8898,VALID,193,VALID,0,
2010-04-11, 01:19:04,VALID,999.006,VALID,0,VALID,92.9364,VALID,0,VALID,24.9112,VALID,193,VALID,0,
2010-04-11, 01:20:04,VALID,999.042,VALID,0,VALID,92.9288,VALID,0,VALID,24.8703,VALID,193,VALID,0,
2010-04-11, 01:21:04,VALID,999.014,VALID,0,VALID,92.9517,VALID,0,VALID,24.8917,VALID,193,VALID,0,
2010-04-11, 01:22:04,VALID,999.024,VALID,0,VALID,92.9669,VALID,0,VALID,24.8703,VALID,193,VALID,0,
2010-04-11, 01:23:04,VALID,998.997,VALID,0,VALID,92.9593,VALID,0,VALID,24.8722,VALID,150,VALID,0,
2010-04-11, 01:24:04,VALID,999.033,VALID,0,VALID,92.9822,VALID,0,VALID,24.8722,VALID,148,VALID,0.237109,
2010-04-11, 01:25:04,VALID,999.009,VALID,0,VALID,92.9974,VALID,0,VALID,24.8917,VALID,141,VALID,0,
2010-04-11, 01:26:04,VALID,998.982,VALID,0,VALID,92.9974,VALID,0,VALID,24.8703,VALID,141,VALID,0,
2010-04-11, 01:27:04,VALID,998.971,VALID,0,VALID,92.9593,VALID,0,VALID,24.8508,VALID,135,VALID,0.502734,
2010-04-11, 01:28:04,VALID,998.946,VALID,0,VALID,92.9669,VALID,0,VALID,24.8527,VALID,130,VALID,0.31875,
2010-04-11, 01:29:04,VALID,998.908,VALID,0,VALID,92.9745,VALID,0,VALID,24.8313,VALID,130,VALID,0.580078,
2010-04-11, 01:30:04,VALID,998.871,VALID,0,VALID,92.9517,VALID,0,VALID,24.8117,VALID,131,VALID,0.517187,
2010-04-11, 01:31:04,VALID,998.842,VALID,0,VALID,92.944,VALID,0,VALID,24.7922,VALID,131,VALID,0.532031,
2010-04-11, 01:32:04,VALID,998.818,VALID,0,VALID,92.944,VALID,0,VALID,24.8136,VALID,158,VALID,0.528906,
2010-04-11, 01:33:04,VALID,998.786,VALID,0,VALID,92.9517,VALID,0,VALID,24.8117,VALID,160,VALID,0.653516,
2010-04-11, 01:34:04,VALID,998.744,VALID,0,VALID,92.9364,VALID,0,VALID,24.8136,VALID,162,VALID,0.907812,
2010-04-11, 01:35:04,VALID,998.721,VALID,0,VALID,92.9745,VALID,0,VALID,24.8117,VALID,162,VALID,0.795313,
2010-04-11, 01:36:04,VALID,998.725,VALID,0,VALID,92.9669,VALID,0,VALID,24.8332,VALID,166,VALID,1.08906,
2010-04-11, 01:37:04,VALID,998.682,VALID,0,VALID,92.9364,VALID,0,VALID,24.8527,VALID,163,VALID,1.1793,
2010-04-11, 01:38:04,VALID,998.651,VALID,0,VALID,92.8296,VALID,0,VALID,24.8136,VALID,160,VALID,1.35898,
2010-04-11, 01:39:04,VALID,998.631,VALID,0,VALID,92.8372,VALID,0,VALID,24.8136,VALID,164,VALID,1.18867,
2010-04-11, 01:40:04,VALID,998.597,VALID,0,VALID,92.8067,VALID,0,VALID,24.8332,VALID,160,VALID,0.958984,
2010-04-11, 01:41:04,VALID,998.562,VALID,0,VALID,92.7838,VALID,0,VALID,24.8332,VALID,156,VALID,1.07109,
2010-04-11, 01:42:04,VALID,998.545,VALID,0,VALID,92.7685,VALID,0,VALID,24.8332,VALID,157,VALID,0.864453,
2010-04-11, 01:43:04,VALID,998.545,VALID,0,VALID,92.8067,VALID,0,VALID,24.8332,VALID,158,VALID,0.719531,
2010-04-11, 01:44:04,VALID,998.54,VALID,0,VALID,92.822,VALID,0,VALID,24.8527,VALID,158,VALID,0.439063,
2010-04-11, 01:45:04,VALID,998.546,VALID,0,VALID,92.8067,VALID,0,VALID,24.8313,VALID,168,VALID,0,
2010-04-11, 01:46:04,VALID,998.553,VALID,0,VALID,92.7991,VALID,0,VALID,24.8117,VALID,167,VALID,0,
2010-04-11, 01:47:04,VALID,998.561,VALID,0,VALID,92.8067,VALID,0,VALID,24.8332,VALID,167,VALID,0,
2010-04-11, 01:48:04,VALID,998.511,VALID,0,VALID,92.7991,VALID,0,VALID,24.8332,VALID,166,VALID,0,
2010-04-11, 01:49:04,VALID,998.546,VALID,0,VALID,92.7685,VALID,0,VALID,24.7922,VALID,146,VALID,0,
2010-04-11, 01:50:04,VALID,998.576,VALID,0,VALID,92.7533,VALID,0,VALID,24.7727,VALID,146,VALID,0,
2010-04-11, 01:51:04,VALID,998.575,VALID,0,VALID,92.7457,VALID,0,VALID,24.7746,VALID,146,VALID,0,
2010-04-11, 01:52:04,VALID,998.601,VALID,0,VALID,92.7533,VALID,0,VALID,24.7551,VALID,145,VALID,0,
2010-04-11, 01:53:04,VALID,998.618,VALID,0,VALID,92.7838,VALID,0,VALID,24.7551,VALID,144,VALID,0,
2010-04-11, 01:54:04,VALID,998.606,VALID,0,VALID,92.7914,VALID,0,VALID,24.7142,VALID,141,VALID,0,
2010-04-11, 01:55:04,VALID,998.611,VALID,0,VALID,92.8067,VALID,0,VALID,24.7142,VALID,119,VALID,0,
2010-04-11, 01:56:04,VALID,998.608,VALID,0,VALID,92.8143,VALID,0,VALID,24.716,VALID,114,VALID,0,
2010-04-11, 01:57:04,VALID,998.631,VALID,0,VALID,92.8448,VALID,0,VALID,24.7142,VALID,114,VALID,0,
2010-04-11, 01:58:04,VALID,998.627,VALID,0,VALID,92.8525,VALID,0,VALID,24.716,VALID,114,VALID,0,
2010-04-11, 01:59:04,VALID,998.634,VALID,0,VALID,92.8983,VALID,0,VALID,24.716,VALID,114,VALID,0,
2010-04-11, 02:00:04,VALID,998.628,VALID,0,VALID,92.9211,VALID,0,VALID,24.716,VALID,114,VALID,0,
2010-04-11, 02:01:04,VALID,998.619,VALID,0,VALID,92.9288,VALID,0,VALID,24.7142,VALID,119,VALID,0,
2010-04-11, 02:02:04,VALID,998.635,VALID,0,VALID,92.9211,VALID,0,VALID,24.6946,VALID,119,VALID,0,
2010-04-11, 02:03:04,VALID,998.62,VALID,0,VALID,92.9288,VALID,0,VALID,24.716,VALID,119,VALID,0,
2010-04-11, 02:04:04,VALID,998.641,VALID,0,VALID,92.9135,VALID,0,VALID,24.6946,VALID,119,VALID,0,
2010-04-11, 02:05:04,VALID,998.616,VALID,0,VALID,92.9288,VALID,0,VALID,24.6965,VALID,119,VALID,0,
2010-04-11, 02:06:04,VALID,998.623,VALID,0,VALID,92.9517,VALID,0,VALID,24.6751,VALID,119,VALID,0,
2010-04-11, 02:07:04,VALID,998.612,VALID,0,VALID,92.9593,VALID,0,VALID,24.6751,VALID,119,VALID,0,
2010-04-11, 02:08:04,VALID,998.594,VALID,0,VALID,92.9669,VALID,0,VALID,24.6965,VALID,119,VALID,0,
2010-04-11, 02:09:04,VALID,998.58,VALID,0,VALID,92.9822,VALID,0,VALID,24.6751,VALID,119,VALID,0,
2010-04-11, 02:10:04,VALID,998.561,VALID,0,VALID,92.9745,VALID,0,VALID,24.6965,VALID,119,VALID,0,
2010-04-11, 02:11:04,VALID,998.566,VALID,0,VALID,92.9974,VALID,0,VALID,24.6751,VALID,119,VALID,0,
2010-04-11, 02:12:04,VALID,998.541,VALID,0,VALID,93.0051,VALID,0,VALID,24.6556,VALID,119,VALID,0,
2010-04-11, 02:13:04,VALID,998.496,VALID,0,VALID,93.0203,VALID,0,VALID,24.6751,VALID,119,VALID,0,
2010-04-11, 02:14:04,VALID,998.472,VALID,0,VALID,93.0127,VALID,0,VALID,24.6575,VALID,119,VALID,0,
2010-04-11, 02:15:04,VALID,998.456,VALID,0,VALID,93.0051,VALID,0,VALID,24.6575,VALID,119,VALID,0,
2010-04-11, 02:16:04,VALID,998.429,VALID,0,VALID,93.0051,VALID,0,VALID,24.638,VALID,136,VALID,0,
2010-04-11, 02:17:04,VALID,998.414,VALID,0,VALID,93.028,VALID,0,VALID,24.638,VALID,164,VALID,0,
2010-04-11, 02:18:04,VALID,998.432,VALID,0,VALID,93.0432,VALID,0,VALID,24.6166,VALID,155,VALID,0,
2010-04-11, 02:19:04,VALID,998.403,VALID,0,VALID,93.028,VALID,0,VALID,24.638,VALID,154,VALID,0,
2010-04-11, 02:20:04,VALID,998.407,VALID,0,VALID,93.0432,VALID,0,VALID,24.6575,VALID,162,VALID,0,
2010-04-11, 02:21:04,VALID,998.411,VALID,0,VALID,93.0737,VALID,0,VALID,24.677,VALID,183,VALID,0,
2010-04-11, 02:22:04,VALID,998.456,VALID,0,VALID,93.089,VALID,0,VALID,24.6946,VALID,187,VALID,0,
2010-04-11, 02:23:04,VALID,998.454,VALID,0,VALID,93.0432,VALID,0,VALID,24.7142,VALID,189,VALID,0,
2010-04-11, 02:24:04,VALID,998.469,VALID,0,VALID,92.9822,VALID,0,VALID,24.7356,VALID,186,VALID,0,
2010-04-11, 02:25:04,VALID,998.478,VALID,0,VALID,92.9135,VALID,0,VALID,24.7337,VALID,185,VALID,0,
2010-04-11, 02:26:04,VALID,998.421,VALID,0,VALID,92.9211,VALID,0,VALID,24.7532,VALID,180,VALID,0,
2010-04-11, 02:27:04,VALID,998.421,VALID,0,VALID,92.9211,VALID,0,VALID,24.7941,VALID,200,VALID,0,
2010-04-11, 02:28:04,VALID,998.436,VALID,0,VALID,92.8677,VALID,0,VALID,24.7941,VALID,188,VALID,0,
2010-04-11, 02:29:04,VALID,998.411,VALID,0,VALID,92.8067,VALID,0,VALID,24.7922,VALID,172,VALID,0,
2010-04-11, 02:30:04,VALID,998.407,VALID,0,VALID,92.738,VALID,0,VALID,24.7727,VALID,163,VALID,0.648047,
2010-04-11, 02:31:04,VALID,998.436,VALID,0,VALID,92.677,VALID,0,VALID,24.7551,VALID,163,VALID,0.626562,
2010-04-11, 02:32:04,VALID,998.459,VALID,0,VALID,92.6999,VALID,0,VALID,24.7746,VALID,163,VALID,0.4125,
2010-04-11, 02:33:04,VALID,998.443,VALID,0,VALID,92.6923,VALID,0,VALID,24.7727,VALID,189,VALID,0.461719,
2010-04-11, 02:34:04,VALID,998.453,VALID,0,VALID,92.738,VALID,0,VALID,24.7941,VALID,190,VALID,0.5375,
2010-04-11, 02:35:04,VALID,998.472,VALID,0,VALID,92.7075,VALID,0,VALID,24.7532,VALID,190,VALID,0.346484,
2010-04-11, 02:36:04,VALID,998.447,VALID,0,VALID,92.6846,VALID,0,VALID,24.7532,VALID,190,VALID,0,
2010-04-11, 02:37:04,VALID,998.495,VALID,0,VALID,92.6617,VALID,0,VALID,24.7532,VALID,236,VALID,0.460547,
2010-04-11, 02:38:04,VALID,998.515,VALID,0,VALID,92.6617,VALID,0,VALID,24.7337,VALID,236,VALID,0.208984,
2010-04-11, 02:39:04,VALID,998.477,VALID,0,VALID,92.6541,VALID,0,VALID,24.716,VALID,189,VALID,0.0640625,
2010-04-11, 02:40:04,VALID,998.479,VALID,0,VALID,92.6541,VALID,0,VALID,24.6946,VALID,135,VALID,0,
2010-04-11, 02:41:04,VALID,998.472,VALID,0,VALID,92.6846,VALID,0,VALID,24.6751,VALID,125,VALID,0,
2010-04-11, 02:42:04,VALID,998.465,VALID,0,VALID,92.677,VALID,0,VALID,24.6556,VALID,125,VALID,0,
2010-04-11, 02:43:04,VALID,998.44,VALID,0,VALID,92.6617,VALID,0,VALID,24.6361,VALID,117,VALID,0,
2010-04-11, 02:44:04,VALID,998.444,VALID,0,VALID,92.6846,VALID,0,VALID,24.6166,VALID,117,VALID,0,
2010-04-11, 02:45:04,VALID,998.44,VALID,0,VALID,92.7304,VALID,0,VALID,24.6184,VALID,117,VALID,0,
2010-04-11, 02:46:04,VALID,998.398,VALID,0,VALID,92.8372,VALID,0,VALID,24.5775,VALID,117,VALID,0,
2010-04-11, 02:47:04,VALID,998.459,VALID,0,VALID,92.8601,VALID,0,VALID,24.5971,VALID,117,VALID,0,
2010-04-11, 02:48:04,VALID,998.456,VALID,0,VALID,92.8525,VALID,0,VALID,24.5989,VALID,117,VALID,0,
2010-04-11, 02:49:04,VALID,998.455,VALID,0,VALID,92.8754,VALID,0,VALID,24.558,VALID,117,VALID,0,
2010-04-11, 02:50:04,VALID,998.485,VALID,0,VALID,92.9059,VALID,0,VALID,24.558,VALID,117,VALID,0,
2010-04-11, 02:51:04,VALID,998.477,VALID,0,VALID,92.9288,VALID,0,VALID,24.558,VALID,117,VALID,0,
2010-04-11, 02:52:04,VALID,998.498,VALID,0,VALID,92.9517,VALID,0,VALID,24.558,VALID,117,VALID,0,
2010-04-11, 02:53:04,VALID,998.492,VALID,0,VALID,92.9669,VALID,0,VALID,24.5599,VALID,117,VALID,0,
2010-04-11, 02:54:04,VALID,998.51,VALID,0,VALID,92.9745,VALID,0,VALID,24.519,VALID,117,VALID,0,
2010-04-11, 02:55:04,VALID,998.55,VALID,0,VALID,92.944,VALID,0,VALID,24.4995,VALID,117,VALID,0,
2010-04-11, 02:56:04,VALID,998.563,VALID,0,VALID,92.9745,VALID,0,VALID,24.48,VALID,117,VALID,0,
2010-04-11, 02:57:04,VALID,998.581,VALID,0,VALID,92.9517,VALID,0,VALID,24.48,VALID,117,VALID,0,
2010-04-11, 02:58:04,VALID,998.572,VALID,0,VALID,92.9517,VALID,0,VALID,24.4604,VALID,117,VALID,0,
2010-04-11, 02:59:04,VALID,998.589,VALID,0,VALID,93.028,VALID,0,VALID,24.4604,VALID,117,VALID,0,
2010-04-11, 03:00:04,VALID,998.546,VALID,0,VALID,93.1043,VALID,0,VALID,24.48,VALID,117,VALID,0,
2010-04-11, 03:01:04,VALID,998.593,VALID,0,VALID,93.15,VALID,0,VALID,24.48,VALID,117,VALID,0,
2010-04-11, 03:02:04,VALID,998.549,VALID,0,VALID,93.1729,VALID,0,VALID,24.4995,VALID,117,VALID,0,
2010-04-11, 03:03:04,VALID,998.531,VALID,0,VALID,93.1958,VALID,0,VALID,24.519,VALID,117,VALID,0,
2010-04-11, 03:04:04,VALID,998.511,VALID,0,VALID,93.1958,VALID,0,VALID,24.519,VALID,117,VALID,0,
2010-04-11, 03:05:04,VALID,998.491,VALID,0,VALID,93.2111,VALID,0,VALID,24.4995,VALID,117,VALID,0,
2010-04-11, 03:06:04,VALID,998.533,VALID,0,VALID,93.1958,VALID,0,VALID,24.5013,VALID,117,VALID,0,
2010-04-11, 03:07:04,VALID,998.531,VALID,0,VALID,93.234,VALID,0,VALID,24.4604,VALID,117,VALID,0,
2010-04-11, 03:08:04,VALID,998.578,VALID,0,VALID,93.2721,VALID,0,VALID,24.48,VALID,117,VALID,0,
2010-04-11, 03:09:04,VALID,998.613,VALID,0,VALID,93.295,VALID,0,VALID,24.5209,VALID,117,VALID,0,
2010-04-11, 03:10:04,VALID,998.603,VALID,0,VALID,93.2874,VALID,0,VALID,24.4995,VALID,117,VALID,0,
2010-04-11, 03:11:04,VALID,998.641,VALID,0,VALID,93.3026,VALID,0,VALID,24.5209,VALID,117,VALID,0,
2010-04-11, 03:12:04,VALID,998.623,VALID,0,VALID,93.2797,VALID,0,VALID,24.5209,VALID,117,VALID,0,
2010-04-11, 03:13:04,VALID,998.639,VALID,0,VALID,93.295,VALID,0,VALID,24.48,VALID,117,VALID,0,
2010-04-11, 03:14:04,VALID,998.657,VALID,0,VALID,93.295,VALID,0,VALID,24.48,VALID,117,VALID,0,
2010-04-11, 03:15:04,VALID,998.657,VALID,0,VALID,93.3103,VALID,0,VALID,24.4818,VALID,117,VALID,0,
2010-04-11, 03:16:04,VALID,998.653,VALID,0,VALID,93.2797,VALID,0,VALID,24.4428,VALID,117,VALID,0,
2010-04-11, 03:17:04,VALID,998.668,VALID,0,VALID,93.2721,VALID,0,VALID,24.4428,VALID,117,VALID,0,
2010-04-11, 03:18:04,VALID,998.687,VALID,0,VALID,93.2187,VALID,0,VALID,24.4037,VALID,117,VALID,0,
2010-04-11, 03:19:04,VALID,998.683,VALID,0,VALID,93.3026,VALID,0,VALID,24.4037,VALID,117,VALID,0,
2010-04-11, 03:20:04,VALID,998.702,VALID,0,VALID,93.3179,VALID,0,VALID,24.4037,VALID,117,VALID,0,
2010-04-11, 03:21:04,VALID,998.718,VALID,0,VALID,93.3484,VALID,0,VALID,24.4037,VALID,117,VALID,0,
2010-04-11, 03:22:04,VALID,998.776,VALID,0,VALID,93.4018,VALID,0,VALID,24.4233,VALID,117,VALID,0,
2010-04-11, 03:23:04,VALID,998.756,VALID,0,VALID,93.4171,VALID,0,VALID,24.4037,VALID,117,VALID,0,
2010-04-11, 03:24:04,VALID,998.772,VALID,0,VALID,93.44,VALID,0,VALID,24.4214,VALID,108,VALID,0.359766,
2010-04-11, 03:25:04,VALID,998.79,VALID,0,VALID,93.4857,VALID,0,VALID,24.4214,VALID,92,VALID,0.824609,
2010-04-11, 03:26:04,VALID,998.786,VALID,0,VALID,93.4323,VALID,0,VALID,24.4233,VALID,84,VALID,0.916406,
2010-04-11, 03:27:04,VALID,998.801,VALID,0,VALID,93.4323,VALID,0,VALID,24.4233,VALID,84,VALID,0.691406,
2010-04-11, 03:28:04,VALID,998.78,VALID,0,VALID,93.4323,VALID,0,VALID,24.3824,VALID,84,VALID,0.376172,
2010-04-11, 03:29:04,VALID,998.762,VALID,0,VALID,93.4323,VALID,0,VALID,24.3842,VALID,84,VALID,0,
2010-04-11, 03:30:04,VALID,998.764,VALID,0,VALID,93.4323,VALID,0,VALID,24.3647,VALID,84,VALID,0,
2010-04-11, 03:31:04,VALID,998.75,VALID,0,VALID,93.4247,VALID,0,VALID,24.3433,VALID,84,VALID,0,
2010-04-11, 03:32:04,VALID,998.769,VALID,0,VALID,93.4781,VALID,0,VALID,24.3433,VALID,84,VALID,0,
2010-04-11, 03:33:04,VALID,998.794,VALID,0,VALID,93.5239,VALID,0,VALID,24.3824,VALID,84,VALID,0,
2010-04-11, 03:34:04,VALID,998.791,VALID,0,VALID,93.5544,VALID,0,VALID,24.4019,VALID,84,VALID,0,
2010-04-11, 03:35:04,VALID,998.794,VALID,0,VALID,93.5391,VALID,0,VALID,24.3824,VALID,84,VALID,0,
2010-04-11, 03:36:04,VALID,998.854,VALID,0,VALID,93.5315,VALID,0,VALID,24.3629,VALID,82,VALID,0,
2010-04-11, 03:37:04,VALID,998.873,VALID,0,VALID,93.4934,VALID,0,VALID,24.3842,VALID,74,VALID,0,
2010-04-11, 03:38:04,VALID,998.829,VALID,0,VALID,93.5086,VALID,0,VALID,24.3433,VALID,71,VALID,0,
2010-04-11, 03:39:04,VALID,998.847,VALID,0,VALID,93.4781,VALID,0,VALID,24.3433,VALID,65,VALID,0.688672,
2010-04-11, 03:40:04,VALID,998.846,VALID,0,VALID,93.5086,VALID,0,VALID,24.3257,VALID,62,VALID,0.779688,
2010-04-11, 03:41:04,VALID,998.815,VALID,0,VALID,93.501,VALID,0,VALID,24.3062,VALID,54,VALID,0.862109,
2010-04-11, 03:42:04,VALID,998.804,VALID,0,VALID,93.4934,VALID,0,VALID,24.2653,VALID,53,VALID,0.692969,
2010-04-11, 03:43:04,VALID,998.771,VALID,0,VALID,93.4781,VALID,0,VALID,24.2671,VALID,39,VALID,0.691406,
2010-04-11, 03:44:04,VALID,998.757,VALID,0,VALID,93.4934,VALID,0,VALID,24.2458,VALID,36,VALID,0.408594,
2010-04-11, 03:45:04,VALID,998.725,VALID,0,VALID,93.5391,VALID,0,VALID,24.2458,VALID,36,VALID,0.513672,
2010-04-11, 03:46:04,VALID,998.701,VALID,0,VALID,93.562,VALID,0,VALID,24.3043,VALID,25,VALID,0.00195313,
2010-04-11, 03:47:04,VALID,998.701,VALID,0,VALID,93.5773,VALID,0,VALID,24.3257,VALID,25,VALID,0,
2010-04-11, 03:48:04,VALID,998.69,VALID,0,VALID,93.5849,VALID,0,VALID,24.3238,VALID,25,VALID,0,
2010-04-11, 03:49:04,VALID,998.693,VALID,0,VALID,93.5926,VALID,0,VALID,24.3433,VALID,25,VALID,0,
2010-04-11, 03:50:04,VALID,998.724,VALID,0,VALID,93.6078,VALID,0,VALID,24.3629,VALID,25,VALID,0,
2010-04-11, 03:51:04,VALID,998.716,VALID,0,VALID,93.6002,VALID,0,VALID,24.3842,VALID,25,VALID,0,
2010-04-11, 03:52:04,VALID,998.691,VALID,0,VALID,93.5926,VALID,0,VALID,24.3629,VALID,25,VALID,0,
2010-04-11, 03:53:04,VALID,998.674,VALID,0,VALID,93.6002,VALID,0,VALID,24.3629,VALID,25,VALID,0,
2010-04-11, 03:54:04,VALID,998.696,VALID,0,VALID,93.6078,VALID,0,VALID,24.3629,VALID,25,VALID,0,
2010-04-11, 03:55:04,VALID,998.688,VALID,0,VALID,93.6154,VALID,0,VALID,24.3629,VALID,25,VALID,0,